Regional Weather Roundup
Issued by NWS Binghamton, NY

Home | Current Version | Previous Version | Text Only | Print | Product List | Glossary On
Versions: 1 2 3 4 5 6 7 8 9 10 11 12 13 14 15 16 17 18 19 20 21 22 23 24 25 26 27
000
ASUS41 KBGM 240610
RWRBGM

REGIONAL WEATHER ROUNDUP
NATIONAL WEATHER SERVICE BINGHAMTON NY
200 AM EDT TUE MAY 24 2022

Note: "fair" indicates few or no clouds below 12,000 feet with no
significant weather and/or obstructions to visibility.

* = Station(s) that does not report precipitation, such as rain,
snow, etc, also no thunder or fog.

NYZ009-015>018-022>025-036-037-044>046-055>057-062-240700
...Central New York...

CITY           SKY/WX    TMP DP  RH WIND       PRES   REMARKS
Binghamton     CLOUDY    48  43  82 NE6       30.26S
Cortland       FAIR      43  41  93 CALM      30.29S
Dansville      MOCLDY    45  43  93 CALM      30.30F
Elmira         MOCLDY    46  43  89 CALM      30.28S
Endicott       CLOUDY    50  50 100 CALM      30.28S
Ithaca         MOCLDY    44  44 100 CALM      30.29F
Hamilton       CLOUDY    46  46 100 CALM      30.29S
Monticello     MOCLDY    54  43  66 CALM      30.27R
Norwich        PTCLDY    46  45  93 CALM      30.31S
Oneonta        CLEAR     48  39  71 CALM      30.28S
Penn Yan       MOCLDY    43  39  86 S3        30.29F
Rome           CLOUDY    52  47  83 CALM      30.30S
Seneca Falls   CLEAR     45  43  93 W3        30.30S
Sidney         CLOUDY    50  46  87 NE5       30.28S
Skaneateles    FAIR      45  45 100 CALM      30.28F
Syracuse       MOCLDY    47  43  86 CALM      30.29F
$$

PAZ038>040-043-044-047-048-072-240700
...Northeast Pennsylvania...

CITY           SKY/WX    TMP DP  RH WIND       PRES   REMARKS
Hazleton       CLOUDY    55  43  62 CALM      30.28S
Scranton       CLOUDY    58  46  64 E3        30.25S
$$
&&
KEY
WCI = Wind Chill Index
VSB = Visibility
HX  = Heat Index
$$



USA.gov is the U.S. government's official web portal to all federal, state and local government web resources and services.